Location: Burland Observatory
(39.4088°N, 105.4217°W)
Time: 13:54:53
(UTC-07:00)

Vanguard 3 - Pass Details

Date: 11 December 2019
Orbit: 507 x 3263 km, 33.4° (Epoch: 22 January)

Event Time Altitude Azimuth Distance (km) Brightness Sun altitude
Rises 12:49:27 0° 278° (W) 5,365 11.4 26.3°
Reaches altitude 10° 12:52:41 10° 272° (W) 4,690 11.3 26.1°
Maximum altitude 13:05:59 46° 205° (SSW) 3,574 12.0 25.4°
Drops below altitude 10° 13:24:00 10° 141° (SE) 6,191 12.1 24.2°
Sets 13:29:07 0° 136° (SE) 7,154 12.2 23.8°
